Location: Unspecified
(0.0000°N, 0.0000°E)
Time: 06:40:17
(UTC+00:00)

Freja - Pass Details

Date: 28 May 2024
Orbit: 548 x 1731 km, 63.0° (Epoch: 13 June)

Event Time Altitude Azimuth Distance (km) Brightness Sun altitude
Rises 19:56:49 0° 347° (NNW) 2,771 8.9 -27.6°
Reaches altitude 10° 19:59:07 10° 354° (N) 1,827 7.8 -28.1°
Enters shadow 20:00:06 16° 0° (N) 1,452 7.2 -28.3°
